Temp
23 22 21 21 20 19 20 24 26 24 25 24 25 24 23 21 22 20 19 20 20 19 18 18 19 19 19 20 20 20 20 19 19 20 20 20 19 19 19 19 19 18 18 18 18 18 17 18 18
23 22 22 23 19 19 20 24 23 23 24 24 24 23 22 21 20 18 18 20 20 19 19 18 19 19 19 20 20 20 19 19 19 19 19 19 19 19 19 19 19 18 18 18 18 18 17 17 17
24 23 23 19 18 19 20 23 23 24 24 25 24 23 21 18 18 18 20 20 20 20 19 19 19 20 20 20 20 20 19 19 19 20 20 20 19 19 19 19 19 18 18 18 18 17 18 18 17
24 23 21 20 20 21 21 24 24 23 25 25 24 22 21 20 20 19 20 20 20 20 19 18 19 20 20 20 20 19 19 19 18 19 20 19 19 19 19 19 19 18 18 18 17 18 18 18 18
24 23 19 20 21 22 22 22 23 24 24 24 24 21 20 19 21 21 20 20 21 20 19 18 19 20 19 19 19 19 18 19 19 19 19 19 19 18 18 18 18 18 18 17 17 18 18 18 17
23 22 20 21 22 25 26 24 25 26 24 23 22 21 20 21 21 20 20 20 20 20 20 19 19 20 19 19 19 19 18 19 19 19 19 19 19 19 18 18 18 18 18 18 18 17 18 18 18
21 20 22 23 24 26 26 27 26 25 24 24 22 20 18 20 20 21 20 20 20 20 20 19 18 20 19 19 18 19 19 19 19 19 19 19 18 18 18 18 18 18 18 18 17 17 17 17 18
24 21 22 22 24 27 27 26 26 25 24 23 23 19 18 19 20 20 19 20 20 20 19 19 18 19 19 19 18 19 19 19 19 19 19 19 18 18 17 18 18 18 18 18 18 17 17 17 17
24 22 22 23 25 28 28 26 26 26 24 25 24 23 22 20 20 19 19 19 19 19 19 18 18 19 19 19 18 18 19 19 19 19 19 18 18 17 17 17 17 17 18 18 18 18 17 16 16
23 21 23 25 27 28 27 27 26 25 24 23 23 22 21 20 20 20 19 20 19 19 19 19 19 19 19 18 18 18 19 19 20 19 19 18 18 17 17 17 17 17 17 17 17 18 18 17 16
23 22 25 27 27 28 27 28 27 25 24 23 21 19 20 19 19 20 20 21 21 20 20 20 20 20 19 19 19 18 19 19 20 19 19 18 18 17 16 16 17 17 17 16 17 17 18 17 16
26 27 27 30 30 29 28 28 26 27 27 27 24 23 20 19 19 20 20 20 20 20 20 20 20 20 20 19 20 20 20 20 20 19 19 18 17 17 17 17 17 17 17 17 16 17 17 16 17
26 27 29 30 30 29 29 27 26 25 26 26 23 21 20 20 20 20 21 21 20 20 20 21 21 20 20 20 20 20 20 20 20 19 18 18 18 17 17 17 17 17 16 17 16 16 17 17 17
29 28 30 29 29 29 26 25 26 24 24 23 23 21 21 21 21 21 21 21 21 21 21 21 21 20 20 20 20 20 20 20 19 19 18 18 18 18 17 17 17 17 16 16 16 16 17 17 17
30 29 28 27 28 28 27 26 25 24 24 23 22 21 21 21 21 22 21 21 22 21 21 21 21 21 21 21 21 20 20 19 19 19 18 18 18 18 18 18 17 17 17 17 17 17 17 17 17
27 27 26 28 27 27 28 24 23 24 23 23 23 22 22 22 22 21 22 22 22 22 21 21 21 21 21 21 20 20 19 19 19 19 19 18 18 18 18 18 17 17 17 17 17 17 17 17 17
24 26 27 28 27 27 26 25 23 24 24 22 22 23 22 22 22 22 23 22 22 22 22 21 21 21 21 21 21 20 19 19 19 20 19 18 18 18 18 18 18 18 17 17 17 17 17 17 17
25 25 26 26 29 27 25 26 23 23 23 22 22 22 22 23 23 24 24 23 23 21 22 21 21 22 21 21 20 20 19 19 19 19 19 19 18 18 18 18 18 18 18 17 18 17 17 18 17
26 26 25 27 29 28 25 26 23 23 23 23 22 21 21 22 23 25 24 24 23 22 21 22 22 21 21 20 20 19 20 19 19 19 19 19 18 19 19 19 18 18 18 17 17 18 18 18 17
26 26 25 27 29 28 27 25 24 23 23 23 22 20 21 23 24 25 22 25 23 22 21 21 22 22 21 20 20 20 19 20 19 19 19 18 19 19 19 19 18 18 18 17 18 18 18 18 17
26 25 25 26 28 26 26 24 24 24 24 24 24 23 22 23 25 27 25 24 23 23 22 21 22 22 21 20 20 19 19 19 18 18 18 18 18 18 18 18 18 18 17 17 18 18 18 18 17
24 27 27 28 26 25 24 23 22 22 22 23 24 23 24 25 25 25 26 25 23 23 22 22 22 22 21 20 20 20 20 19 19 17 18 18 18 18 18 18 18 18 18 18 18 18 18 18 18
25 28 27 28 24 24 24 23 23 22 22 22 22 25 26 27 26 25 24 25 23 21 22 22 22 21 21 20 20 20 19 19 19 17 18 18 18 18 18 18 18 18 17 18 17 17 17 18 18
27 28 24 20 21 22 23 22 22 21 22 23 23 24 26 27 27 24 23 24 23 22 20 21 21 21 21 20 19 19 19 18 18 18 18 18 18 18 18 18 18 18 17 18 18 17 18 18 18
25 22 21 23 22 22 20 21 22 25 24 25 23 26 27 27 26 24 23 24 24 21 21 22 21 21 20 19 19 19 18 17 18 18 18 18 18 19 18 18 18 18 18 17 18 17 18 18 18
23 22 21 24 21 22 21 22 25 25 26 27 27 29 28 27 27 25 24 24 23 22 23 22 21 20 19 19 19 18 18 17 17 18 18 18 18 19 18 18 18 19 18 17 17 17 18 18 18
26 24 23 19 17 20 20 21 23 25 25 25 26 25 27 28 26 25 26 24 23 22 22 22 21 20 19 19 18 17 17 17 17 18 18 18 19 19 18 19 19 18 17 17 17 18 18 18 17
26 24 24 19 22 23 21 21 22 26 25 25 26 24 27 28 26 25 25 25 24 23 22 22 21 20 19 19 18 19 19 17 18 18 19 18 19 19 19 19 18 18 17 17 17 17 17 17 18
24 24 20 20 19 20 21 21 20 23 24 24 23 27 29 29 28 26 26 26 24 23 22 21 20 19 19 20 20 20 20 19 19 19 19 19 18 19 19 19 18 18 18 17 17 17 18 17 17
25 24 21 21 22 18 19 21 24 22 23 24 25 29 30 29 27 26 26 25 24 22 21 20 20 20 21 21 21 20 20 19 19 19 19 19 19 19 19 19 18 18 18 17 17 17 18 18 17
Height
1492 1492 1493 1493 1503 1505 1513 1498 1484 1488 1487 1486 1490 1491 1492 1493 1495 1509 1499 1505 1512 1517 1521 1525 1528 1531 1533 1536 1538 1540 1542 1543 1545 1546 1548 1549 1551 1553 1555 1556 1556 1555 1556 1557 1557 1558 1558 1558 1560
1493 1494 1496 1493 1513 1524 1520 1496 1499 1491 1490 1489 1491 1493 1494 1496 1496 1496 1500 1506 1512 1517 1522 1526 1530 1533 1535 1538 1539 1541 1543 1546 1547 1548 1550 1551 1552 1555 1557 1557 1557 1557 1557 1558 1559 1559 1560 1560 1561
1494 1494 1495 1500 1513 1524 1518 1498 1495 1491 1491 1490 1493 1495 1497 1498 1497 1500 1504 1507 1513 1518 1523 1528 1531 1534 1537 1539 1541 1543 1544 1546 1549 1550 1551 1552 1554 1555 1557 1558 1559 1560 1559 1560 1560 1560 1561 1562 1562
1493 1494 1497 1505 1513 1506 1505 1492 1486 1489 1489 1491 1494 1497 1500 1499 1501 1505 1507 1511 1515 1520 1524 1529 1533 1536 1539 1541 1543 1545 1546 1547 1550 1552 1553 1553 1555 1556 1558 1560 1561 1561 1561 1561 1561 1561 1561 1563 1564
1493 1493 1503 1508 1509 1502 1498 1496 1493 1490 1491 1492 1493 1500 1504 1506 1507 1509 1511 1513 1516 1521 1526 1530 1534 1537 1541 1543 1545 1546 1547 1548 1550 1552 1553 1554 1556 1557 1559 1560 1562 1563 1562 1562 1563 1562 1562 1563 1566
1493 1494 1510 1513 1505 1493 1489 1488 1492 1491 1493 1496 1497 1500 1506 1507 1507 1510 1514 1517 1521 1523 1527 1531 1535 1539 1542 1544 1546 1548 1550 1550 1551 1553 1554 1556 1557 1558 1560 1561 1562 1564 1564 1564 1564 1564 1564 1565 1567
1492 1498 1505 1503 1500 1489 1487 1488 1490 1491 1494 1497 1497 1502 1508 1508 1509 1509 1514 1518 1522 1526 1528 1531 1535 1538 1541 1544 1547 1548 1550 1551 1552 1554 1555 1557 1558 1559 1560 1562 1562 1564 1565 1565 1565 1565 1565 1566 1567
1490 1494 1501 1502 1497 1491 1484 1487 1490 1491 1496 1497 1498 1501 1507 1506 1509 1511 1515 1519 1524 1526 1529 1531 1535 1538 1540 1544 1547 1549 1550 1552 1553 1554 1555 1557 1558 1558 1558 1561 1563 1564 1565 1565 1565 1565 1566 1567 1569
1488 1499 1505 1500 1493 1487 1483 1488 1495 1494 1494 1495 1496 1495 1497 1504 1509 1513 1515 1519 1523 1526 1529 1531 1535 1538 1541 1544 1547 1549 1550 1552 1554 1555 1556 1557 1557 1558 1559 1561 1562 1564 1565 1565 1565 1566 1566 1568 1568
1488 1500 1494 1484 1483 1484 1485 1485 1490 1493 1495 1496 1494 1495 1499 1504 1509 1511 1515 1518 1522 1525 1528 1531 1534 1538 1540 1543 1546 1548 1550 1551 1553 1555 1556 1557 1558 1558 1559 1560 1561 1562 1564 1565 1565 1565 1566 1567 1569
1488 1493 1481 1478 1479 1484 1487 1487 1486 1489 1492 1490 1492 1493 1499 1503 1508 1511 1513 1515 1518 1523 1528 1531 1534 1537 1540 1541 1544 1546 1548 1551 1552 1554 1556 1557 1558 1558 1559 1560 1561 1562 1562 1564 1565 1565 1566 1567 1567
1487 1477 1478 1477 1477 1481 1484 1484 1485 1484 1484 1485 1491 1493 1496 1503 1507 1510 1514 1516 1518 1522 1526 1531 1533 1536 1539 1541 1543 1545 1547 1550 1552 1553 1555 1556 1557 1557 1558 1559 1559 1560 1561 1563 1564 1565 1565 1565 1566
1483 1476 1475 1476 1477 1477 1482 1483 1485 1485 1485 1488 1492 1496 1498 1503 1507 1511 1515 1518 1521 1523 1525 1528 1531 1534 1537 1539 1542 1544 1545 1547 1550 1552 1554 1555 1556 1557 1558 1559 1559 1560 1560 1561 1563 1563 1563 1564 1564
1477 1476 1472 1475 1476 1478 1481 1485 1484 1488 1489 1489 1492 1495 1498 1500 1506 1510 1513 1516 1519 1522 1524 1527 1528 1531 1535 1537 1539 1542 1544 1547 1549 1551 1553 1554 1555 1556 1557 1557 1557 1558 1558 1559 1560 1561 1562 1562 1563
1473 1475 1475 1478 1476 1478 1480 1487 1483 1485 1488 1490 1493 1494 1496 1500 1504 1504 1508 1512 1515 1519 1523 1525 1527 1529 1532 1535 1538 1540 1542 1545 1547 1549 1551 1553 1554 1555 1556 1556 1556 1556 1556 1557 1558 1559 1560 1561 1561
1476 1477 1491 1477 1477 1479 1481 1497 1481 1486 1486 1488 1491 1494 1494 1494 1497 1503 1508 1510 1512 1516 1518 1522 1524 1527 1529 1532 1535 1538 1540 1543 1545 1546 1548 1550 1552 1554 1555 1555 1554 1555 1555 1555 1556 1557 1558 1559 1559
1487 1497 1489 1482 1473 1475 1481 1487 1480 1484 1485 1484 1489 1491 1493 1496 1497 1500 1499 1500 1508 1510 1514 1518 1521 1522 1526 1529 1532 1535 1539 1541 1543 1545 1547 1548 1550 1551 1553 1553 1553 1553 1553 1553 1553 1555 1556 1557 1557
1503 1500 1491 1492 1475 1474 1478 1480 1479 1483 1482 1481 1488 1488 1490 1489 1490 1488 1487 1491 1496 1504 1509 1514 1517 1519 1522 1526 1529 1532 1534 1536 1540 1542 1544 1546 1547 1549 1550 1550 1551 1551 1550 1550 1551 1552 1554 1555 1556
1490 1495 1496 1479 1470 1473 1477 1479 1481 1479 1479 1484 1485 1486 1485 1484 1485 1485 1487 1484 1488 1496 1502 1507 1512 1514 1519 1522 1524 1527 1528 1533 1536 1538 1540 1542 1544 1546 1547 1545 1546 1548 1547 1547 1548 1550 1551 1553 1554
1489 1493 1491 1478 1465 1469 1475 1482 1479 1479 1478 1480 1480 1482 1482 1482 1482 1479 1481 1482 1484 1491 1496 1502 1506 1509 1513 1517 1521 1523 1525 1529 1532 1536 1538 1540 1543 1543 1543 1543 1544 1544 1545 1545 1545 1546 1548 1550 1551
1488 1492 1488 1487 1473 1470 1477 1489 1484 1479 1477 1478 1480 1480 1480 1476 1476 1476 1479 1480 1483 1487 1490 1495 1500 1504 1510 1513 1517 1520 1523 1527 1529 1533 1535 1538 1540 1540 1540 1541 1541 1540 1541 1541 1542 1543 1545 1547 1548
1496 1473 1479 1473 1481 1500 1483 1517 1492 1480 1474 1471 1474 1472 1473 1470 1472 1475 1478 1480 1481 1484 1489 1491 1496 1501 1505 1507 1513 1515 1517 1520 1523 1529 1530 1534 1535 1536 1537 1537 1537 1537 1537 1538 1539 1540 1542 1545 1546
1482 1469 1475 1473 1487 1492 1494 1507 1489 1481 1481 1473 1470 1468 1466 1464 1466 1470 1475 1477 1480 1483 1486 1489 1494 1497 1500 1507 1509 1512 1514 1517 1519 1522 1525 1529 1531 1533 1534 1534 1534 1533 1534 1535 1535 1534 1537 1541 1543
1467 1473 1480 1488 1497 1516 1503 1508 1500 1489 1476 1468 1465 1462 1462 1460 1462 1468 1471 1475 1477 1481 1484 1487 1491 1493 1497 1503 1505 1507 1510 1514 1516 1519 1522 1525 1527 1529 1530 1530 1529 1528 1529 1530 1530 1531 1533 1537 1540
1473 1491 1518 1517 1521 1524 1507 1512 1491 1465 1462 1460 1459 1455 1457 1457 1459 1464 1468 1472 1475 1476 1480 1484 1486 1488 1492 1497 1502 1504 1504 1509 1514 1516 1518 1521 1522 1524 1526 1525 1524 1524 1524 1526 1526 1528 1530 1534 1537
1477 1484 1512 1522 1531 1519 1504 1509 1480 1455 1455 1456 1453 1452 1452 1452 1454 1459 1464 1468 1473 1475 1478 1480 1481 1485 1489 1494 1496 1498 1500 1505 1510 1512 1515 1516 1518 1521 1523 1522 1522 1521 1517 1521 1523 1524 1528 1531 1534
1468 1484 1470 1508 1519 1517 1509 1491 1464 1452 1452 1450 1452 1447 1447 1447 1450 1456 1462 1466 1470 1472 1474 1477 1479 1482 1486 1490 1491 1492 1495 1500 1505 1508 1511 1513 1515 1517 1518 1520 1518 1517 1515 1518 1519 1522 1525 1529 1532
1460 1459 1485 1500 1521 1521 1513 1503 1492 1460 1453 1446 1444 1446 1445 1446 1448 1453 1458 1463 1468 1471 1474 1476 1478 1480 1483 1485 1486 1487 1490 1498 1503 1505 1509 1511 1512 1513 1515 1516 1516 1515 1514 1514 1514 1518 1522 1526 1529
1465 1470 1479 1486 1501 1519 1523 1504 1461 1456 1449 1447 1443 1441 1441 1442 1446 1452 1456 1460 1465 1470 1473 1475 1477 1478 1479 1481 1484 1487 1489 1498 1502 1504 1507 1509 1510 1511 1512 1514 1514 1514 1513 1513 1513 1516 1520 1523 1527
1452 1460 1468 1490 1499 1501 1502 1494 1447 1447 1445 1444 1440 1438 1439 1441 1445 1449 1454 1459 1463 1467 1470 1473 1474 1476 1479 1482 1484 1488 1492 1497 1500 1502 1506 1507 1509 1510 1511 1512 1513 1515 1514 1513 1513 1514 1519 1522 1525
Wind_Speed
3 2 3 3 3 4 4 5 5 3 2 2 11 4 5 3 2 3 19 35 33 33 31 28 27 28 27 27 25 23 23 23 23 22 20 20 19 18 17 13 10 12 12 12 13 13 13 12 15
3 7 3 2 4 3 5 7 7 4 6 18 13 5 5 2 2 16 39 32 33 33 30 27 27 27 28 25 24 24 25 21 21 20 19 19 19 19 17 10 11 12 13 14 14 13 14 14 14
6 3 2 4 1 4 5 2 8 9 9 1 4 9 3 3 10 33 31 33 33 33 31 28 27 27 26 23 23 25 25 21 19 19 18 19 19 18 14 10 10 12 13 14 14 14 14 15 14
4 2 6 4 4 4 6 5 8 3 6 4 12 6 7 7 26 21 29 35 33 31 29 27 27 26 24 22 23 24 23 19 18 17 17 17 17 16 13 10 9 11 12 13 14 14 15 15 15
4 2 3 2 1 4 13 23 5 9 4 7 5 4 12 17 8 23 30 33 32 30 28 26 26 25 23 21 20 22 20 18 18 16 15 15 15 14 12 10 10 11 12 13 13 13 14 15 15
1 2 3 2 4 5 6 20 11 5 10 9 10 9 3 11 22 24 28 31 28 28 28 26 25 25 22 20 19 20 17 17 17 15 15 13 12 11 11 10 10 10 11 11 13 13 12 13 13
5 2 3 2 2 3 6 16 12 9 11 6 17 4 10 21 23 24 28 30 28 27 26 25 24 25 22 20 18 18 18 16 16 15 15 13 11 10 11 11 10 11 9 10 11 12 11 10 10
6 3 3 1 4 6 12 12 17 13 3 16 17 7 9 30 25 24 27 29 25 26 25 25 24 25 23 21 18 17 17 16 16 15 14 11 8 5 11 11 10 10 9 8 9 10 10 10 10
5 3 3 3 1 3 18 8 12 4 19 4 14 11 22 33 29 28 32 28 26 26 27 27 25 24 22 20 18 17 16 17 16 14 12 9 6 6 11 11 11 9 7 7 8 9 9 8 9
3 2 6 5 2 5 8 19 13 6 12 3 9 12 33 34 33 33 31 28 28 29 28 27 26 25 22 20 19 18 18 18 16 14 12 8 6 6 7 11 11 5 2 6 8 9 8 7 7
4 5 6 6 11 9 12 13 9 18 5 11 24 35 37 36 35 33 29 26 28 27 28 26 24 23 23 22 20 19 19 18 16 14 12 9 6 5 6 9 11 5 4 3 4 8 8 6 5
4 10 9 3 5 16 9 14 7 15 4 18 20 30 39 38 36 33 29 27 26 27 26 25 24 23 22 21 21 19 19 17 15 13 12 10 8 8 7 7 8 7 6 5 6 6 6 7 9
5 8 9 3 9 19 17 7 4 2 14 20 23 30 37 38 34 32 27 25 23 26 25 26 25 25 23 22 21 20 19 17 14 13 13 9 7 10 8 7 7 8 8 8 10 11 8 7 5
8 18 9 7 17 17 11 5 1 7 20 25 24 33 37 37 36 32 30 28 26 26 25 24 24 24 23 22 22 20 18 16 14 14 12 11 9 8 8 9 8 8 10 10 11 9 11 7 5
15 6 5 6 12 4 22 2 6 19 24 25 27 33 32 33 34 33 31 29 27 28 27 24 22 21 20 22 22 19 18 18 16 13 11 8 10 9 6 6 6 7 8 10 10 9 8 7 5
5 5 4 5 6 7 4 6 4 21 25 24 27 27 33 35 34 31 25 25 33 30 31 28 25 24 21 21 24 21 19 19 17 15 10 8 7 7 7 4 5 6 9 11 11 10 9 7 4
6 2 2 4 12 6 6 2 5 22 20 23 24 24 27 32 34 32 30 23 29 33 34 33 31 28 25 22 24 22 20 19 16 12 9 9 8 6 7 6 6 7 9 10 13 11 10 8 6
3 4 7 5 4 7 8 3 9 18 24 22 23 22 24 30 32 34 41 34 29 33 37 36 35 31 28 26 26 24 23 19 17 15 12 12 10 9 9 8 7 8 9 10 14 12 10 9 6
2 3 7 13 10 6 9 4 10 18 21 17 21 23 23 25 25 20 34 27 35 31 35 41 39 36 33 32 30 29 28 26 24 17 17 15 13 14 13 8 7 9 9 9 14 14 11 11 8
3 6 10 12 12 5 4 2 4 11 11 20 24 27 30 25 23 16 28 30 33 32 32 37 42 40 37 36 34 33 30 28 30 19 19 15 17 16 13 12 11 11 11 10 11 16 13 11 10
3 5 8 9 3 5 5 5 2 4 7 17 17 22 29 34 25 21 18 30 34 37 33 34 37 43 40 42 38 37 32 28 26 23 20 20 19 16 14 16 11 10 12 11 12 13 16 12 11
6 4 10 7 4 3 4 4 5 6 10 7 14 18 24 32 31 30 20 27 28 33 34 29 34 43 44 44 41 38 34 36 30 23 26 23 19 16 14 14 13 11 10 11 11 13 15 15 13
11 2 5 4 5 4 4 4 7 2 7 10 11 26 27 31 32 35 33 24 28 27 32 31 30 37 43 44 39 36 37 34 36 29 28 21 26 23 20 19 16 13 13 12 13 15 20 19 16
7 2 7 5 4 3 1 4 6 4 7 6 12 28 32 32 30 28 28 26 18 29 29 24 28 31 34 38 39 34 37 38 34 26 25 24 20 24 21 17 16 13 14 15 15 13 17 19 17
4 6 2 3 4 5 2 2 10 5 7 7 10 30 30 31 30 27 26 28 16 19 32 26 24 28 34 34 32 29 29 32 32 26 24 22 23 21 18 17 16 15 15 14 15 15 18 19 18
7 9 6 5 4 5 2 5 6 5 7 9 18 21 26 32 30 28 26 30 26 24 26 21 20 23 31 29 25 22 24 29 30 29 27 24 19 17 16 15 11 16 15 15 15 16 18 18 17
4 4 4 8 4 3 3 7 10 3 1 8 13 20 26 29 27 26 17 19 23 22 24 23 21 22 24 24 22 23 23 26 28 23 19 15 17 17 13 10 10 10 10 17 15 17 19 18 16
7 4 3 3 4 3 4 5 6 4 7 8 3 19 27 28 27 22 18 13 17 16 17 18 17 19 21 20 19 18 17 19 18 16 14 12 11 11 12 8 7 8 12 19 17 16 19 17 15
2 0 6 5 4 6 2 6 7 7 7 8 8 15 24 28 32 24 19 17 18 18 16 17 18 18 18 17 17 17 16 16 17 16 11 9 10 12 11 8 8 5 3 10 14 12 15 17 17
4 8 5 6 5 2 4 7 5 10 8 10 18 21 19 22 26 25 20 23 22 23 18 18 18 19 19 19 17 15 16 16 15 14 11 10 10 9 9 10 9 6 4 8 12 12 13 14 17
Wind_Direction
77 102 65 91 42 43 353 18 333 116 32 61 138 172 154 53 162 206 149 160 164 159 157 158 158 154 154 153 149 146 145 144 142 141 142 145 148 149 144 130 118 127 137 136 135 135 130 136 137
73 115 84 65 74 42 319 319 46 55 107 95 83 90 45 75 63 141 152 160 163 160 157 160 159 155 155 154 149 148 144 142 143 146 148 149 153 153 148 123 109 123 129 130 134 135 138 139 139
57 124 69 87 138 160 215 241 139 137 169 258 116 69 54 99 139 146 157 161 163 161 161 162 159 158 156 154 153 151 148 147 144 142 145 151 150 153 147 129 116 128 129 129 133 135 140 144 144
164 170 80 93 173 253 209 268 201 114 49 90 122 81 72 320 136 149 158 162 164 163 162 160 161 160 155 151 153 152 148 146 141 138 137 144 140 147 146 137 125 127 128 141 140 141 142 146 142
141 91 51 37 93 225 219 241 240 143 130 105 55 79 111 150 163 157 160 165 165 163 163 162 164 162 158 153 152 152 147 146 145 144 136 139 146 147 144 144 130 130 125 138 143 142 142 148 144
56 97 72 237 216 245 191 208 183 149 120 113 107 108 91 178 160 158 167 169 170 165 166 164 167 166 164 159 156 153 156 153 148 148 143 139 145 151 151 151 143 139 135 140 149 148 147 152 154
134 100 178 197 233 206 192 158 178 147 149 137 135 81 138 166 165 159 167 172 173 172 170 170 171 171 170 169 163 160 163 158 153 150 145 141 144 156 161 155 153 147 147 152 158 159 163 165 168
147 102 146 289 236 189 144 145 155 141 123 139 159 153 168 171 169 162 165 171 180 181 181 175 176 176 174 174 172 167 169 166 160 157 154 144 140 152 178 161 156 146 151 161 163 165 172 177 184
134 78 142 244 278 61 137 117 152 197 147 173 183 187 175 173 169 162 163 171 181 187 185 179 181 182 180 178 178 178 176 175 170 169 163 147 132 120 180 165 157 143 144 166 172 173 171 181 194
97 116 219 201 208 102 127 134 145 134 168 70 164 163 164 173 172 168 170 174 180 184 186 186 185 186 187 186 186 185 183 182 185 182 175 167 151 136 153 176 177 155 165 193 191 190 185 185 198
163 215 188 224 219 127 141 146 160 144 208 188 153 152 169 176 177 178 181 187 188 188 188 191 192 192 194 196 194 192 190 189 192 190 191 195 187 176 150 184 195 196 204 211 198 203 206 204 189
250 240 242 122 258 159 180 153 166 181 225 179 169 172 172 178 183 186 190 194 194 193 195 195 198 202 204 203 203 200 196 195 192 196 197 204 213 197 185 170 180 203 208 212 208 227 221 209 216
202 274 256 258 135 143 142 142 140 153 148 156 161 173 177 182 189 197 201 202 198 195 195 200 206 208 210 207 205 201 197 194 192 192 188 196 206 210 211 200 198 205 215 222 230 236 222 231 249
248 235 226 184 150 147 132 151 173 150 150 152 167 174 186 189 195 201 208 207 204 199 199 201 206 209 210 209 201 198 199 195 197 197 200 205 206 212 224 234 228 253 245 237 237 236 227 227 249
287 170 109 175 165 147 125 295 242 155 159 160 169 182 189 197 201 207 215 217 216 213 206 206 204 193 202 207 194 192 194 194 198 197 200 209 222 225 234 246 272 268 243 239 220 212 216 215 246
337 74 136 183 155 162 141 239 257 165 159 173 185 191 197 198 203 204 220 244 232 222 214 209 203 194 195 197 197 196 195 205 216 203 197 216 218 227 232 263 248 266 245 228 219 219 228 222 231
7 215 230 300 195 151 203 229 192 185 182 186 187 194 204 208 206 210 215 218 236 235 224 214 210 203 202 201 204 208 207 213 224 219 210 221 216 239 244 260 252 252 243 232 220 222 223 214 237
17 2 317 277 252 189 200 226 182 191 196 194 187 191 201 209 207 209 214 222 225 234 233 223 218 215 210 207 208 212 218 209 233 233 222 223 231 247 244 241 231 255 254 240 229 228 221 220 236
300 259 278 284 287 152 208 178 193 199 206 192 198 186 189 207 217 227 215 218 220 226 229 227 223 222 214 211 210 213 214 213 214 246 237 231 237 248 250 252 251 269 265 233 232 235 233 227 229
228 288 289 291 281 154 128 106 171 194 216 212 197 187 193 192 204 241 216 217 215 222 228 229 227 228 221 217 215 219 216 216 217 230 233 246 256 255 266 269 254 267 257 243 238 235 239 229 224
280 229 282 252 244 51 90 344 327 200 246 229 221 216 214 218 230 229 210 213 216 221 228 231 231 232 224 222 216 219 222 222 217 221 235 254 255 264 271 274 269 269 264 245 235 242 237 233 229
288 216 262 256 110 181 42 244 282 237 228 224 216 220 233 240 234 235 241 227 221 222 229 231 233 233 227 227 222 221 234 226 225 230 253 250 254 264 275 281 272 277 269 251 243 245 240 231 225
242 72 235 234 81 98 356 82 268 97 257 248 228 230 244 252 251 243 239 239 233 228 231 236 236 230 231 229 223 230 235 235 240 248 253 262 246 252 273 279 276 274 269 263 253 252 240 227 217
270 263 36 28 94 38 7 109 280 200 212 249 223 234 243 250 247 242 241 237 249 233 229 231 232 234 233 227 224 233 238 241 241 244 240 256 250 251 261 273 272 271 270 258 255 247 218 216 217
116 69 317 350 34 212 44 54 240 221 215 205 210 238 236 240 241 237 230 226 250 229 225 238 226 228 222 222 228 243 242 236 239 241 247 264 253 247 256 261 262 260 261 257 242 228 216 217 220
186 163 157 190 178 245 84 236 257 196 184 236 221 237 243 240 239 237 230 231 232 232 228 236 231 226 221 228 235 236 231 231 234 241 252 255 238 236 243 248 269 269 246 246 227 221 213 215 216
214 191 187 99 9 74 244 288 302 359 92 224 220 214 221 237 236 227 222 226 221 224 229 232 231 232 228 232 231 226 228 232 237 239 239 229 233 229 228 235 261 298 249 231 223 216 207 213 223
164 170 80 22 120 226 278 275 235 290 311 304 274 190 214 227 230 223 207 210 211 215 218 217 224 230 231 230 224 217 214 225 216 205 213 219 217 214 222 241 256 271 261 220 207 207 205 212 221
4 198 57 116 127 159 206 262 215 237 236 250 268 236 208 213 220 215 221 222 216 210 201 208 213 211 205 194 188 182 177 189 199 201 205 218 210 212 213 232 252 282 213 201 184 194 202 211 225
178 218 159 140 219 183 165 265 218 223 234 218 254 243 221 217 218 213 191 195 204 204 198 205 198 186 178 171 178 182 190 202 207 201 201 199 185 209 218 228 232 217 181 168 174 193 208 214 228